Regional Weather Roundup
Issued by NWS

Home | Current Version | Previous Version | Text Only | Print | Product List | Glossary On
Versions: 1 2 3 4 5 6 7 8 9 10 11 12 13 14 15 16 17 18 19 20 21 22 23 24 25 26 27
000
ASUS44 KBMX 250210
RWRAL

ALABAMA REGIONAL WEATHER ROUNDUP
NATIONAL WEATHER SERVICE BIRMINGHAM AL
900 PM CDT FRI MAR 24 2017

NOTE: "FAIR" INDICATES FEW OR NO CLOUDS BELOW 12,000 FEET
WITH NO SIGNIFICANT WEATHER AND/OR OBSTRUCTIONS TO VISIBILITY.

THE REMARK "TC" DENOTES TEMPERATURE IN DEGREES CELSIUS.

ALZ001>011-014-016>018-020-250300-
NORTH ALABAMA

CITY           SKY/WX    TMP DP  RH WIND       PRES   REMARKS
MUSCLE SHOALS  CLOUDY    69  54  58 SE12      30.14S
HUNTSVILLE     CLOUDY    69  54  58 SE13      30.17F
DECATUR        CLOUDY    66  55  67 SE10      30.17F
HALEYVILLE     FAIR      67  56  67 S8        30.18S
GADSDEN        CLOUDY    70  52  52 SE3       30.23S
$$

ALZ012-013-022-023-030>036-040>044-250300-
WEST CENTRAL ALABAMA

CITY           SKY/WX    TMP DP  RH WIND       PRES   REMARKS
TUSCALOOSA     CLOUDY    70  58  65 S12       30.17F
$$

ALZ015-024>027-033>036-040>044-250300-
CENTRAL ALABAMA

CITY           SKY/WX    TMP DP  RH WIND       PRES   REMARKS
BIRMINGHAM     MOCLDY    71  53  52 SE7       30.23F
MONTGOMERY     CLOUDY    69  54  58 SE6       30.22S
SHELBY CO ARPT CLOUDY    70  55  59 SE3       30.22R
MAXWELL AFB    CLOUDY    68  56  65 S5        30.21F
GREENVILLE     FAIR      69  53  56 S7        30.24R
$$

ALZ019-021-028-029-037-038-045>048-250300-
EAST CENTRAL ALABAMA

CITY           SKY/WX    TMP DP  RH WIND       PRES   REMARKS
ANNISTON       CLOUDY    72  51  47 SE9       30.24S
ALEXANDER CITY MOCLDY    66  56  70 E3        30.24F
AUBURN         PTCLDY    69  51  52 SE6       30.28R
$$

ALZ051>064-250300-
SOUTHWEST ALABAMA

CITY           SKY/WX    TMP DP  RH WIND       PRES   REMARKS
MOBILE         CLOUDY    68  61  78 SE15      30.23R
BROOKLEY FIELD CLOUDY    69  64  84 SE17      30.24S
EVERGREEN      CLOUDY    65  55  70 S7        30.24S
$$

ALZ049-050-065>069-250300-
SOUTHEAST ALABAMA

CITY           SKY/WX    TMP DP  RH WIND       PRES   REMARKS
DOTHAN         CLOUDY    70  54  56 SE5       30.28S
OZARK          MOCLDY    66  57  71 SW5       30.25R
TROY           CLOUDY    68  54  60 SE5       30.25R
EUFAULA        CLOUDY    70  51  51 SE6       30.25S
$$




USA.gov is the U.S. government's official web portal to all federal, state and local government web resources and services.